Monument Pass, CO

9:03 AM MDT on May 25, 2017 (GMT -0600)
Monument Pass

Weather History for KMNH - February, 2014

Change the Weather History Date:

Thursday, February 20, 2014

  Actual Average Record
Temperature  
Mean Temperature 18 °F -  
Max Temperature 26 °F - 54 °F (2016)
Min Temperature 10 °F - 10 °F (2006)
Degree Days  
Heating Degree Days 47    
Month to date heating degree days  
Cooling Degree Days 0    
Month to date cooling degree days  
Moisture  
Dew Point 4 °F    
Average Humidity 53    
Maximum Humidity 100    
Minimum Humidity 31    
Precipitation  
Precipitation 0.00 in - 0.04 in (2013)
Sea Level Pressure  
Sea Level Pressure 29.84 in    
Wind  
Wind Speed 16 mph (NW)    
Max Wind Speed 28 mph    
Max Gust Speed 32 mph    
Visibility 10 miles    
Events      
T = Trace of Precipitation, MM = Missing Value Source: NWS Daily Summary

Daily Weather History Graph

Daily Weather History Graph

Search for Another Location

Airport or City:

Trip Planner

Search our weather history database for the weather conditions in past years. The results will help you decide how hot, cold, wet, or windy it might be!

Date:

Astronomy

Feb. 20, 2014 Rise Set
Actual Time 6:43 AM MST 5:41 PM MST
Civil Twilight 6:16 AM MST 6:08 PM MST
Nautical Twilight 5:45 AM MST 6:39 PM MST
Astronomical Twilight 5:14 AM MST 7:10 PM MST
Moon 11:35 PM MST (2/20) 9:30 AM MST (2/20)
Length of Visible Light 11h 51m
Length of Day
10h 57m
Waning Gibbous, 70% of the Moon is Illuminated
Feb 20
Waning Gibbous
Feb 22
Last Quarter
Mar 1
New
Mar 8
First Quarter
Mar 16
Full

Hourly Weather History & Observations

Time (MST) Temp. Windchill Dew Point Humidity Pressure Visibility Wind Dir Wind Speed Gust Speed Precip Events Conditions
12:11 AM 19.4 °F 3.6 °F 19.4 °F 100% 29.67 in - North 19.6 mph 27.6 mph N/A   Overcast
12:31 AM 19.4 °F 4.1 °F 17.6 °F 93% 29.68 in - North 18.4 mph 29.9 mph N/A   Overcast
12:50 AM 19.4 °F 5.0 °F 15.8 °F 86% 29.69 in - North 16.1 mph 24.2 mph N/A   Unknown
1:10 AM 19.4 °F 4.1 °F 15.8 °F 86% 29.69 in - North 18.4 mph - N/A   Unknown
1:31 AM 19.4 °F 3.6 °F 15.8 °F 86% 29.70 in - North 19.6 mph 24.2 mph N/A   Overcast
1:51 AM 19.4 °F 5.0 °F 14.0 °F 80% 29.70 in - North 16.1 mph - N/A   Overcast
2:11 AM 19.4 °F 6.0 °F 14.0 °F 80% 29.71 in - North 13.8 mph 23.0 mph N/A   Unknown
2:31 AM 19.4 °F 5.5 °F 15.8 °F 86% 29.72 in - North 15.0 mph 20.7 mph N/A   Unknown
2:51 AM 17.6 °F 5.7 °F 14.0 °F 86% 29.72 in - North 10.4 mph - N/A   Unknown
3:11 AM 15.8 °F 5.1 °F 14.0 °F 93% 29.72 in - North 8.1 mph - N/A   Unknown
3:31 AM 14.0 °F 2.9 °F 12.2 °F 93% 29.73 in - North 8.1 mph - N/A   Unknown
3:51 AM 12.2 °F 1.7 °F 10.4 °F 92% 29.73 in - NW 6.9 mph - N/A   Unknown
4:11 AM 14.0 °F 5.1 °F 12.2 °F 93% 29.75 in - NW 5.8 mph - N/A   Unknown
4:31 AM 12.2 °F 1.7 °F 10.4 °F 92% 29.76 in - NW 6.9 mph - N/A   Unknown
4:51 AM 10.4 °F -0.4 °F 10.4 °F 100% 29.77 in - West 6.9 mph - N/A   Unknown
5:11 AM 12.2 °F -1.0 °F 10.4 °F 92% 29.78 in - West 10.4 mph - N/A   Unknown
5:31 AM 14.0 °F 1.2 °F 12.2 °F 93% 29.79 in - WNW 10.4 mph - N/A   Mostly Cloudy
5:51 AM 15.8 °F -0.2 °F 8.6 °F 73% 29.80 in - WNW 17.3 mph 21.9 mph N/A   Overcast
6:11 AM 17.6 °F 0.9 °F 3.2 °F 53% 29.81 in - NW 20.7 mph 29.9 mph N/A   Mostly Cloudy
6:31 AM 17.6 °F 3.2 °F 1.4 °F 49% 29.81 in - NW 15.0 mph 21.9 mph N/A   Clear
6:51 AM 17.6 °F 1.3 °F 1.4 °F 49% 29.83 in - NNW 19.6 mph 25.3 mph N/A   Clear
7:11 AM 17.6 °F 2.2 °F 1.4 °F 49% 29.84 in - NW 17.3 mph - N/A   Clear
7:31 AM 17.6 °F 1.7 °F 1.4 °F 49% 29.85 in - NNW 18.4 mph 26.5 mph N/A   Clear
7:51 AM 19.4 °F 4.5 °F 1.4 °F 46% 29.86 in - NW 17.3 mph - N/A   Clear
8:11 AM 21.2 °F 6.0 °F 1.4 °F 42% 29.87 in - NW 19.6 mph 23.0 mph N/A   Clear
8:31 AM 21.2 °F 7.3 °F 3.2 °F 46% 29.87 in - NW 16.1 mph - N/A   Clear
8:51 AM 21.2 °F 4.9 °F 1.4 °F 42% 29.87 in 10.0 mi NW 23.0 mph - N/A   Clear
9:11 AM 21.2 °F 6.0 °F 3.2 °F 46% 29.88 in 10.0 mi NW 19.6 mph 23.0 mph N/A   Clear
9:31 AM 23.0 °F 8.7 °F 1.4 °F 39% 29.89 in 10.0 mi NW 18.4 mph 25.3 mph N/A   Clear
9:51 AM 23.0 °F 8.7 °F -0.4 °F 36% 29.89 in 10.0 mi NNW 18.4 mph 24.2 mph N/A   Clear
10:11 AM 23.0 °F 9.2 °F 3.2 °F 43% 29.89 in 10.0 mi NNW 17.3 mph 24.2 mph N/A   Clear
10:31 AM 24.8 °F 10.3 °F 3.2 °F 40% 29.90 in 10.0 mi NNW 20.7 mph 24.2 mph N/A   Clear
10:51 AM 23.0 °F 7.6 °F 1.4 °F 39% 29.91 in 7.0 mi NNW 21.9 mph 31.1 mph N/A   Clear
11:11 AM 23.0 °F 6.9 °F 1.4 °F 39% 29.91 in 7.0 mi NNW 24.2 mph 32.2 mph N/A   Clear
11:31 AM 23.0 °F 8.0 °F 1.4 °F 39% 29.91 in 10.0 mi NNW 20.7 mph 26.5 mph N/A   Clear
11:51 AM 23.0 °F 8.3 °F 3.2 °F 43% 29.91 in 10.0 mi NNW 19.6 mph 26.5 mph N/A   Clear
12:11 PM 24.8 °F 10.3 °F 1.4 °F 36% 29.90 in 10.0 mi NNW 20.7 mph 27.6 mph N/A   Clear
12:30 PM 24.8 °F 10.3 °F -0.4 °F 34% 29.90 in 10.0 mi NW 20.7 mph 26.5 mph N/A   Clear
12:51 PM 23.0 °F 7.6 °F -0.4 °F 36% 29.91 in 7.0 mi NNW 21.9 mph 28.8 mph N/A   Clear
1:10 PM 23.0 °F 8.0 °F 1.4 °F 39% 29.91 in 10.0 mi NNW 20.7 mph 28.8 mph N/A   Scattered Clouds
1:31 PM 23.0 °F 6.0 °F 1.4 °F 39% 29.90 in 10.0 mi NNW 27.6 mph 32.2 mph N/A   Scattered Clouds
1:51 PM 24.8 °F 9.6 °F -0.4 °F 34% 29.90 in 10.0 mi NNW 23.0 mph 31.1 mph N/A   Clear
2:11 PM 24.8 °F 10.0 °F -0.4 °F 34% 29.90 in 10.0 mi NW 21.9 mph 32.2 mph N/A   Clear
2:31 PM 26.6 °F 12.0 °F -0.4 °F 31% 29.89 in 10.0 mi NW 23.0 mph 28.8 mph N/A   Clear
2:51 PM 24.8 °F 10.0 °F 3.2 °F 40% 29.89 in 10.0 mi NNW 21.9 mph 28.8 mph N/A   Clear
3:11 PM 26.6 °F 11.4 °F 1.4 °F 34% 29.90 in 4.0 mi NNW 25.3 mph 32.2 mph N/A   Haze
3:29 PM 26.6 °F 12.7 °F 3.2 °F 37% 29.91 in 10.0 mi NNW 20.7 mph 27.6 mph N/A   Clear
3:51 PM 26.6 °F 13.8 °F 1.4 °F 34% 29.91 in 10.0 mi NNW 17.3 mph 24.2 mph N/A   Clear
4:11 PM 26.6 °F 14.7 °F -0.4 °F 31% 29.90 in 10.0 mi NNW 15.0 mph 21.9 mph N/A   Clear
4:31 PM 26.6 °F 14.3 °F -0.4 °F 31% 29.90 in 10.0 mi NNW 16.1 mph 24.2 mph N/A   Clear
4:51 PM 24.8 °F 12.9 °F 1.4 °F 36% 29.90 in 10.0 mi NNW 13.8 mph - N/A   Clear
5:11 PM 24.8 °F 14.0 °F -0.4 °F 34% 29.91 in 10.0 mi NNW 11.5 mph - N/A   Clear
5:31 PM 23.0 °F 10.6 °F -0.4 °F 36% 29.91 in 10.0 mi NW 13.8 mph - N/A   Clear
5:50 PM 21.2 °F 8.9 °F -0.4 °F 39% 29.91 in 10.0 mi WNW 12.7 mph 16.1 mph N/A   Clear
6:11 PM 15.8 °F 6.1 °F -0.4 °F 49% 29.91 in 10.0 mi West 6.9 mph - N/A   Clear
6:31 PM 17.6 °F 9.3 °F -2.2 °F 42% 29.91 in 10.0 mi SSW 5.8 mph - N/A   Clear
6:50 PM 14.0 °F 2.9 °F -2.2 °F 49% 29.91 in 10.0 mi South 8.1 mph - N/A   Clear
7:10 PM 14.0 °F 1.2 °F -0.4 °F 53% 29.91 in 10.0 mi WSW 10.4 mph - N/A   Clear
7:31 PM 14.0 °F 0.5 °F -0.4 °F 53% 29.89 in 10.0 mi WSW 11.5 mph - N/A   Clear
7:51 PM 17.6 °F 5.0 °F -0.4 °F 45% 29.89 in 10.0 mi WSW 11.5 mph - N/A   Clear
8:11 PM 17.6 °F 4.3 °F -0.4 °F 45% 29.89 in 10.0 mi West 12.7 mph - N/A   Clear
8:31 PM 17.6 °F 5.0 °F 1.4 °F 49% 29.90 in 10.0 mi WSW 11.5 mph - N/A   Clear
8:50 PM 19.4 °F 8.6 °F -0.4 °F 42% 29.89 in 10.0 mi SW 9.2 mph - N/A   Clear
9:11 PM 19.4 °F 11.5 °F -2.2 °F 39% 29.87 in 10.0 mi SSW 5.8 mph - N/A   Clear
9:30 PM 19.4 °F 10.4 °F -2.2 °F 39% 29.86 in 10.0 mi SW 6.9 mph - N/A   Clear
9:50 PM 19.4 °F 7.9 °F -0.4 °F 42% 29.86 in 10.0 mi SW 10.4 mph - N/A   Clear
10:11 PM 21.2 °F 10.9 °F -0.4 °F 39% 29.85 in 10.0 mi SW 9.2 mph - N/A   Clear
10:30 PM 21.2 °F 11.7 °F -0.4 °F 39% 29.85 in 10.0 mi SW 8.1 mph - N/A   Clear
10:50 PM 23.0 °F 9.6 °F 1.4 °F 39% 29.85 in 10.0 mi West 16.1 mph - N/A   Clear
11:11 PM 23.0 °F 10.6 °F 1.4 °F 39% 29.84 in 10.0 mi West 13.8 mph - N/A   Clear
11:30 PM 19.4 °F 8.6 °F 1.4 °F 46% 29.84 in 10.0 mi West 9.2 mph - N/A   Clear
11:51 PM 19.4 °F 8.6 °F 1.4 °F 46% 29.84 in 10.0 mi West 9.2 mph - N/A   Clear